User: anonymous   Login
Location: Deer Path Park
(40.5570°N, 74.8450°W)
Time: 19:39:33
(UTC-05:00)
Language:

Iridium 49 - Orbit

View from above orbital plane
View from above orbital plane
View from above satellite
View from above satellite

Ground track
Ground track

The orbit data is extracted from the following two-line orbital elements,

1 25108U 97082E   16040.58224810  .00000282  00000-0  93746-4 0  9998
2 25108  86.3954 101.8001 0002239  99.1971  13.6165 14.34223799949622
Epoch (UTC): 09 February 2016 13:58:26
Eccentricity: 0.0002239
inclination: 86.3954°
perigee height: 776 km
apogee height: 779 km
right ascension of ascending node: 101.8001°
argument of perigee: 99.1971°
revolutions per day: 14.34223799
mean anomaly at epoch: 13.6165°
orbit number at epoch: 94962

The dashed part of the orbit path shows where the satellite is in the earth's shadow,  

DLR